Temp
5 6 5 5 5 4 4 3 2 1 1 1 1 1 2 2 2 2 2 2 2 2
5 5 4 3 4 3 2 2 1 1 1 1 0 1 1 1 1 1 1 1 1 1
4 4 3 3 3 2 1 1 1 0 -0 -0 -0 -0 0 0 -1 -0 0 -0 -1 -1
3 3 3 2 1 1 1 0 0 -0 -1 -2 -2 -2 -2 -2 -3 -2 -2 -2 -2 -3
3 3 2 1 0 -0 -0 -0 -1 -1 -2 -3 -4 -4 -5 -3 -4 -5 -4 -4 -4 -4
2 2 -0 -1 -1 -2 -2 -2 -2 -2 -3 -3 -3 -4 -5 -5 -4 -6 -5 -5 -5 -5
-0 -2 -3 -4 -4 -5 -4 -5 -5 -5 -4 -4 -4 -4 -5 -4 -4 -4 -5 -5 -5 -6
-3 -4 -4 -5 -6 -6 -6 -6 -6 -6 -5 -4 -6 -7 -6 -6 -6 -5 -5 -5 -5 -6
-2 -3 -4 -5 -5 -5 -6 -6 -6 -5 -5 -5 -5 -7 -7 -6 -6 -6 -5 -5 -6 -6
-0 -1 -2 -2 -2 -3 -3 -3 -4 -5 -4 -3 -5 -7 -6 -7 -6 -6 -6 -5 -5 -6
1 1 0 -0 -0 -0 -1 -2 -2 -2 -2 -2 -5 -6 -6 -5 -3 -3 -4 -5 -5 -5
2 1 1 1 0 0 -0 -1 -2 -3 -3 -3 -6 -7 -6 -6 -2 -3 -5 -5 -8 -8
2 2 1 1 0 -0 -1 -2 -3 -4 -5 -5 -6 -7 -7 -6 -3 -4 -4 -5 -6 -9
2 1 0 0 -0 -1 -2 -3 -4 -6 -6 -7 -7 -7 -9 -7 -5 -6 -5 -5 -6 -9
Height
806 809 810 812 815 813 814 818 818 818 816 813 813 811 811 810 808 806 804 802 800 797
805 808 809 812 812 813 816 818 817 816 817 815 814 813 812 811 809 807 805 804 802 799
805 808 810 811 811 814 816 816 817 816 818 817 815 814 814 812 810 808 808 806 804 802
806 807 809 810 812 814 816 816 817 817 818 818 817 816 816 814 812 811 811 809 807 804
805 809 808 811 813 813 816 817 818 818 819 820 819 818 817 815 814 814 813 811 809 807
806 808 809 810 812 813 816 818 819 818 820 821 821 820 819 817 817 816 815 814 812 809
805 807 808 809 811 813 815 817 819 819 821 822 822 821 821 819 818 818 817 816 815 812
804 805 806 809 812 814 816 817 819 820 822 823 823 821 822 821 820 819 819 818 817 815
802 803 805 809 812 815 817 818 820 821 823 824 824 822 822 822 821 821 820 819 818 816
798 801 806 809 812 815 817 819 820 821 823 824 824 823 823 822 822 822 821 821 819 817
794 799 803 807 810 812 815 817 818 821 822 823 824 824 824 822 823 823 822 822 820 818
790 796 800 804 807 810 813 815 818 821 822 824 824 824 824 822 822 823 823 823 821 820
787 793 797 802 806 809 812 815 818 821 822 823 824 824 824 822 822 823 823 823 822 820
785 790 795 800 805 808 811 814 817 820 822 823 823 824 824 823 823 823 823 823 822 821
Wind_Speed
8 6 6 4 4 5 5 3 5 7 8 10 10 10 8 8 10 10 11 12 14 13
8 7 7 6 6 6 5 3 5 8 8 9 10 10 8 9 11 11 11 11 14 13
9 8 8 7 7 6 5 5 6 7 8 8 9 10 9 9 12 12 12 12 14 14
10 9 8 8 8 7 6 6 6 7 7 8 9 10 9 10 12 12 12 14 15 16
11 10 9 9 8 8 7 6 6 6 7 8 9 10 10 11 12 13 13 14 16 17
12 11 11 10 8 8 8 6 6 7 7 7 8 9 10 11 11 12 12 13 15 17
16 15 12 10 10 11 9 8 7 8 7 6 7 8 8 10 11 11 12 12 13 16
16 14 14 12 10 10 9 9 8 9 7 5 6 8 6 9 9 10 10 11 11 13
17 15 14 12 11 10 9 9 8 8 7 6 5 6 6 7 8 8 9 10 10 11
19 17 15 14 13 12 10 10 8 7 5 4 4 5 4 2 6 6 8 9 9 10
20 18 17 15 14 12 11 10 8 7 5 4 3 4 4 2 1 4 6 9 11 12
21 20 18 17 15 13 12 10 8 7 5 4 6 4 2 6 1 2 5 7 10 12
22 21 19 17 15 13 12 10 9 8 6 5 7 5 2 6 1 2 3 3 4 14
22 20 19 17 16 14 12 11 10 9 7 4 5 5 6 2 3 4 3 4 5 7
Wind_Direction
140 138 129 119 119 93 84 70 39 29 28 26 19 16 9 9 8 3 3 1 357 346
143 144 135 134 118 101 93 74 55 43 31 29 24 19 16 17 17 12 10 4 1 356
147 139 137 131 113 106 98 79 65 54 40 34 30 28 25 27 22 23 16 11 7 4
150 144 141 130 119 113 100 83 76 67 51 42 39 35 35 37 32 29 22 17 12 8
152 155 140 129 120 113 103 92 86 81 66 50 47 44 42 43 39 34 27 21 15 11
160 157 141 127 123 116 112 103 93 89 77 61 51 49 43 47 43 39 31 24 18 13
165 155 139 132 130 127 119 111 99 93 86 70 59 55 50 49 46 41 33 28 22 18
165 154 149 140 137 128 121 116 110 102 101 88 61 57 64 56 50 44 35 28 24 21
167 158 152 153 146 145 141 137 121 114 110 102 77 59 69 71 56 44 37 30 24 22
171 166 166 165 162 161 160 155 147 143 142 119 88 53 94 114 60 56 42 31 26 29
174 174 174 173 173 169 167 165 161 156 156 134 102 41 134 68 50 43 38 32 26 25
178 179 178 179 176 174 171 166 160 160 152 134 118 34 223 340 92 46 34 26 31 24
180 182 181 179 176 174 170 164 160 156 152 131 113 54 28 8 42 34 360 40 32 27
180 177 174 174 176 175 168 165 158 158 153 142 101 60 27 102 61 16 358 6 9 21